Las Vegas, NM

12:56 AM MST on December 08, 2016 (GMT -0700)
Las Vegas Municipal

Weather History for KLVS - March, 2012

Change the Weather History Date:

Sunday, March 18, 2012

  Actual Average Record
Temperature  
Mean Temperature 49 °F -  
Max Temperature 63 °F 57 °F 73 °F (1978)
Min Temperature 33 °F 25 °F 7 °F (1965)
Degree Days  
Heating Degree Days 16    
Moisture  
Dew Point 20 °F    
Average Humidity 36    
Maximum Humidity 72    
Minimum Humidity 16    
Precipitation  
Precipitation 0.00 in - - ()
Sea Level Pressure  
Sea Level Pressure 29.52 in    
Wind  
Wind Speed 25 mph (SSW)    
Max Wind Speed 53 mph    
Max Gust Speed 68 mph    
Visibility 9 miles    
Events      
Averages and records for this station are not official NWS values.
T = Trace of Precipitation, MM = Missing Value Source: NWS Daily Summary

Daily Weather History Graph

Daily Weather History Graph

Search for Another Location

Airport or City:

Trip Planner

Search our weather history database for the weather conditions in past years. The results will help you decide how hot, cold, wet, or windy it might be!

Date:

Astronomy

Mar. 18, 2012 Rise Set
Actual Time 7:06 AM MDT 7:11 PM MDT
Civil Twilight 6:40 AM MDT 7:36 PM MDT
Nautical Twilight 6:11 AM MDT 8:06 PM MDT
Astronomical Twilight 5:41 AM MDT 8:36 PM MDT
Moon 4:39 AM MDT (3/18) 3:46 PM MDT (3/18)
Length of Visible Light 12h 55m
Length of Day
12h 04m
Waning Crescent, 14% of the Moon is Illuminated
Mar 18
Waning Crescent
Mar 22
New
Mar 30
First Quarter
Apr 6
Full
Apr 13
Last Quarter

Hourly Weather History & Observations

Time (MDT) Temp. Windchill Dew Point Humidity Pressure Visibility Wind Dir Wind Speed Gust Speed Precip Events Conditions
1:53 AM 43.0 °F 34.2 °F 12.0 °F 28% 29.60 in 10.0 mi SSW 20.7 mph - N/A   Clear
3:53 AM 46.9 °F - 15.1 °F 28% 29.55 in 10.0 mi SSW 20.7 mph - N/A   Clear
4:53 AM 45.0 °F 37.9 °F 17.1 °F 33% 29.55 in 10.0 mi South 16.1 mph - N/A   Clear
5:53 AM 46.9 °F - 19.0 °F 33% 29.54 in 10.0 mi SSW 17.3 mph - N/A   Partly Cloudy
6:53 AM 46.9 °F - 19.0 °F 33% 29.57 in 10.0 mi South 19.6 mph - N/A   Clear
7:53 AM 46.9 °F - 21.0 °F 36% 29.61 in 10.0 mi SSW 15.0 mph - N/A   Clear
8:53 AM 48.0 °F - 21.0 °F 34% 29.62 in 10.0 mi South 13.8 mph - N/A   Clear
9:53 AM 50.0 °F - 21.9 °F 33% 29.61 in 10.0 mi South 12.7 mph - N/A   Partly Cloudy
10:53 AM 52.0 °F - 23.0 °F 32% 29.57 in 10.0 mi South 19.6 mph 26.5 mph N/A   Clear
11:53 AM 55.0 °F - 21.9 °F 28% 29.51 in 10.0 mi South 28.8 mph 34.5 mph N/A   Clear
12:53 PM 61.0 °F - 16.0 °F 17% 29.44 in 10.0 mi South 43.7 mph 56.4 mph N/A   Partly Cloudy
1:53 PM 63.0 °F - 15.1 °F 16% 29.40 in 10.0 mi SSW 48.3 mph 67.9 mph N/A   Partly Cloudy
2:53 PM 61.0 °F - 15.1 °F 17% 29.37 in 10.0 mi SSW 48.3 mph 64.4 mph N/A   Partly Cloudy
4:53 PM 57.0 °F - 19.0 °F 23% 29.37 in 3.0 mi SSW 52.9 mph 64.4 mph N/A   Haze
5:33 PM 55.4 °F - 17.6 °F 23% 29.60 in 6.0 mi SSW 47.2 mph 62.1 mph N/A   Haze
5:53 PM 54.0 °F - 18.0 °F 24% 29.38 in 6.0 mi SSW 41.4 mph 56.4 mph N/A   Haze
6:53 PM 51.1 °F - 15.1 °F 24% 29.43 in 6.0 mi SW 47.2 mph 58.7 mph N/A   Haze
7:53 PM 42.1 °F 32.6 °F 26.1 °F 53% 29.51 in 10.0 mi SW 23.0 mph 26.5 mph N/A   Scattered Clouds
8:53 PM 37.9 °F 27.9 °F 25.0 °F 60% 29.54 in 10.0 mi SW 19.6 mph - N/A   Clear
9:53 PM 36.0 °F 24.7 °F 26.1 °F 67% 29.56 in 10.0 mi WSW 21.9 mph 26.5 mph N/A   Partly Cloudy
10:53 PM 35.1 °F 24.8 °F 25.0 °F 67% 29.54 in 10.0 mi SW 17.3 mph 26.5 mph N/A   Scattered Clouds
11:53 PM 33.1 °F 21.5 °F 25.0 °F 72% 29.52 in 10.0 mi SW 19.6 mph - N/A   Clear